Location: Cedar Ridge
(38.0658°N, 120.2769°W)
Time: 22:20:38
(UTC+00:00)

NOSS 3-2 (C) - Pass Details

Date: 10 September 2024
Orbit: 699 x 1512 km, 63.4° (Epoch: 11 October)

Event Time Altitude Azimuth Distance (km) Brightness Sun altitude
Exits shadow 12:18:02 - 190° (S) 2,618 5.5 -16.4°
Reaches altitude 10° 12:19:10 10° 186° (S) 2,193 5.1 -16.1°
Maximum altitude 12:23:50 44° 115° (ESE) 1,061 4.1 -15.3°
Drops below altitude 10° 12:29:09 10° 45° (NE) 2,502 6.7 -14.3°
Sets 12:31:56 0° 39° (NE) 3,564 7.4 -13.8°
